This demonstration page uses our WeatherBlox Daily Observations layout. Learn more.

Left ArrowRight Arrow

Hourly Observations for March 7, 2022

Temp ( °F °C ) Dew Point ( °F °C ) Humidity (%) Winds ( mph kmh ) Pressure ( in mb ) Visibility ( mi km ) Precip ( " mm )
12:59 am 00:59 Clear 68 20 60 15.6 76 76 SSW 10 17 30.13 1020 10 16 0.00 0.00
1:59 am 01:59 Clear 67 19.4 60 15.6 79 79 SSW 14 22 30.11 1020 10 16 0.00 0.00
2:59 am 02:59 Clear 67 19.4 60 15.6 79 79 SSW 14 22 30.09 1019 10 16 0.00 0.00
3:59 am 03:59 Partly Cloudy 67 19.4 60 15.6 79 79 undefined N/A 30.07 1018 10 16 0.00 0.00
4:50 am 04:50 Mostly Cloudy 67 19.4 61 16.1 81 81 SSW 15 24 30.07 1018 10 16 0.00 0.00
4:59 am 04:59 Mostly Cloudy 67 19.4 61 16.1 81 81 SSW 14 22 30.06 1018 10 16 0.00 0.00
5:17 am 05:17 Mostly Cloudy 67 19.4 61 16.1 81 81 SSW 12 19 30.06 1018 10 16 0.00 0.00
5:59 am 05:59 Mostly Cloudy 67 19.4 61 16.1 81 81 SSW 9 15 30.06 1018 10 16 0.00 0.00
6:25 am 06:25 Mostly Cloudy 67 19.4 61 16.1 81 81 SSW 10 17 30.06 1018 10 16 0.00 0.00
6:59 am 06:59 Mostly Cloudy 68 20 60 15.6 76 76 SSW 17 28 30.06 1018 9 14 0.00 0.00
7:59 am 07:59 Mostly Cloudy 69 20.6 60 15.6 73 73 SSW 15 24 30.06 1018 9 14 0.00 0.00
8:59 am 08:59 Mostly Cloudy 71 21.7 60 15.6 68 68 SW 18 30 30.05 1018 9 14 0.00 0.00
9:06 am 09:06 Partly Cloudy 72 22.2 60 15.6 66 66 SSW 23 37 30.05 1018 9 14 0.00 0.00
9:59 am 09:59 Mostly Cloudy 75 23.9 60 15.6 60 60 SW 17 28 30.03 1017 10 16 0.00 0.00
10:59 am 10:59 Partly Cloudy 77 25 59 15 54 54 SW 20 31 30.00 1016 10 16 0.00 0.00
11:59 am 11:59 Mostly Cloudy 77 25 57 13.9 50 50 SW 18 30 29.96 1015 10 16 0.00 0.00
12:59 pm 12:59 Mostly Sunny 80 26.7 57 13.9 45 45 SW 25 41 29.91 1013 10 16 0.00 0.00
1:59 pm 13:59 Mostly Cloudy 80 26.7 56 13.3 44 44 SW 18 30 29.88 1012 10 16 0.00 0.00
2:59 pm 14:59 Mostly Sunny 81 27.2 55 12.8 41 41 SW 21 33 29.84 1010 10 16 0.00 0.00
3:59 pm 15:59 Mostly Cloudy 81 27.2 54 12.2 39 39 SW 24 39 29.81 1009 10 16 0.00 0.00
4:59 pm 16:59 Mostly Cloudy 79 26.1 54 12.2 42 42 SW 14 22 29.81 1009 10 16 0.00 0.00
5:59 pm 17:59 Mostly Cloudy 78 25.6 54 12.2 43 43 SW 14 22 29.80 1009 10 16 0.00 0.00
6:59 pm 18:59 Mostly Cloudy 78 25.6 54 12.2 43 43 SSW 18 30 29.80 1009 10 16 0.00 0.00
7:59 pm 19:59 Mostly Cloudy 78 25.6 54 12.2 43 43 SSW 16 26 29.80 1009 10 16 0.00 0.00
8:59 pm 20:59 Mostly Cloudy 77 25 54 12.2 45 45 SSW 15 24 29.79 1009 10 16 0.00 0.00
9:59 pm 21:59 Cloudy with Light Rain 66 18.9 59 15 78 78 W 17 28 29.87 1012 6 10 0.00 0.00
10:06 pm 22:06 Cloudy 66 18.9 59 15 78 78 W 17 28 29.87 1012 10 16 0.00 0.00
10:59 pm 22:59 Cloudy with Light Rain 63 17.2 58 14.4 84 84 WSW 12 19 29.86 1011 5 8 0.04 1.02
11:59 pm 23:59 Cloudy 65 18.3 59 15 81 81 WSW 9 15 29.88 1012 10 16 0.01 0.25

Powered by AerisWeather